Time,TemperatureF,DewpointF,PressureIn,WindDirection,WindDirectionDegrees,WindSpeedMPH,WindSpeedGustMPH,Humidity,HourlyPrecipIn,Conditions,Clouds,dailyrainin,SoftwareType,DateUTC
2013-01-31 00:00:00,43.3,43.3,29.62,SSW,207,1.0,1.0,100,0.00,,,0.00,Wunderground v.1.15,2013-01-31 05:00:00,
2013-01-31 00:02:00,43.2,43.2,29.62,SSW,207,1.0,1.0,100,0.00,,,0.00,Wunderground v.1.15,2013-01-31 05:02:00,
2013-01-31 00:03:00,43.2,43.2,29.63,SSW,207,0.0,1.0,100,0.00,,,0.00,Wunderground v.1.15,2013-01-31 05:03:00,
2013-01-31 00:07:00,43.2,43.2,29.61,SSW,207,0.0,1.0,100,0.00,,,0.00,Wunderground v.1.15,2013-01-31 05:07:00,
2013-01-31 00:12:00,43.1,43.1,29.61,SSW,207,0.0,0.0,100,0.00,,,0.00,Wunderground v.1.15,2013-01-31 05:12:00,
2013-01-31 00:17:00,43.0,43.0,29.62,SSW,207,0.0,0.0,100,0.00,,,0.00,Wunderground v.1.15,2013-01-31 05:17:00,
2013-01-31 00:22:00,43.1,43.1,29.62,SSW,207,0.0,0.0,100,0.00,,,0.00,Wunderground v.1.15,2013-01-31 05:22:00,
2013-01-31 00:27:00,43.1,43.1,29.62,SSW,207,0.0,0.0,100,0.00,,,0.00,Wunderground v.1.15,2013-01-31 05:27:00,
2013-01-31 00:32:00,43.1,43.1,29.63,SSW,207,1.0,1.0,100,0.00,,,0.00,Wunderground v.1.15,2013-01-31 05:32:00,
2013-01-31 00:38:00,43.1,42.8,29.64,SSW,213,0.0,1.0,99,0.00,,,0.00,Wunderground v.1.15,2013-01-31 05:38:00,
2013-01-31 00:43:00,43.2,41.9,29.64,West,267,1.0,3.0,95,0.00,,,0.00,Wunderground v.1.15,2013-01-31 05:43:00,
2013-01-31 00:48:00,43.2,41.3,29.65,WSW,250,2.0,4.0,93,0.00,,,0.00,Wunderground v.1.15,2013-01-31 05:48:00,
2013-01-31 00:53:00,43.0,40.6,29.65,West,265,1.0,3.0,91,0.00,,,0.00,Wunderground v.1.15,2013-01-31 05:53:00,
2013-01-31 00:59:00,42.7,40.3,29.65,SW,215,1.0,3.0,91,0.00,,,0.00,Wunderground v.1.15,2013-01-31 05:59:00,
2013-01-31 01:04:00,42.4,40.0,29.65,WSW,251,1.0,2.0,91,0.00,,,0.00,Wunderground v.1.15,2013-01-31 06:04:00,
2013-01-31 01:09:00,42.1,39.9,29.65,WSW,251,1.0,2.0,92,0.00,,,0.00,Wunderground v.1.15,2013-01-31 06:09:00,
2013-01-31 01:14:00,41.9,39.5,29.66,West,265,2.0,2.0,91,0.00,,,0.00,Wunderground v.1.15,2013-01-31 06:14:00,
2013-01-31 01:19:00,41.8,39.1,29.66,WSW,244,3.0,3.0,90,0.00,,,0.00,Wunderground v.1.15,2013-01-31 06:19:00,
2013-01-31 01:24:00,41.7,38.4,29.66,WSW,257,2.0,4.0,88,0.00,,,0.00,Wunderground v.1.15,2013-01-31 06:24:00,
2013-01-31 01:29:00,41.5,38.5,29.66,WSW,244,1.0,2.0,89,0.00,,,0.00,Wunderground v.1.15,2013-01-31 06:29:00,
2013-01-31 01:34:00,41.3,37.7,29.67,WSW,246,2.0,2.0,87,0.00,,,0.00,Wunderground v.1.15,2013-01-31 06:34:00,
2013-01-31 01:40:00,41.3,37.4,29.67,SW,232,0.0,1.0,86,0.00,,,0.00,Wunderground v.1.15,2013-01-31 06:40:00,
2013-01-31 01:45:00,41.3,37.7,29.68,SW,232,1.0,1.0,87,0.00,,,0.00,Wunderground v.1.15,2013-01-31 06:45:00,
2013-01-31 01:51:00,41.1,37.5,29.68,SW,232,1.0,1.0,87,0.00,,,0.00,Wunderground v.1.15,2013-01-31 06:51:00,
2013-01-31 01:56:00,40.8,36.6,29.69,West,274,1.0,3.0,85,0.00,,,0.00,Wunderground v.1.15,2013-01-31 06:56:00,
2013-01-31 02:01:00,40.3,36.4,29.69,West,270,1.0,3.0,86,0.00,,,0.00,Wunderground v.1.15,2013-01-31 07:01:00,
2013-01-31 02:06:00,39.7,35.9,29.69,WSW,254,1.0,8.0,86,0.00,,,0.00,Wunderground v.1.15,2013-01-31 07:06:00,
2013-01-31 02:11:00,39.2,35.9,29.69,WSW,240,5.0,5.0,88,0.00,,,0.00,Wunderground v.1.15,2013-01-31 07:11:00,
2013-01-31 02:16:00,38.6,35.6,29.70,West,278,4.0,5.0,89,0.00,,,0.00,Wunderground v.1.15,2013-01-31 07:16:00,
2013-01-31 02:21:00,38.2,35.2,29.70,West,266,1.0,4.0,89,0.00,,,0.00,Wunderground v.1.15,2013-01-31 07:21:00,
2013-01-31 02:26:00,37.9,34.9,29.71,West,267,1.0,4.0,89,0.00,,,0.00,Wunderground v.1.15,2013-01-31 07:26:00,
2013-01-31 02:31:00,37.8,34.8,29.71,WSW,251,3.0,4.0,89,0.00,,,0.00,Wunderground v.1.15,2013-01-31 07:31:00,
2013-01-31 02:36:00,37.9,34.7,29.72,SW,230,2.0,7.0,88,0.00,,,0.00,Wunderground v.1.15,2013-01-31 07:36:00,
2013-01-31 02:41:00,38.0,34.5,29.73,WSW,251,5.0,5.0,87,0.00,,,0.00,Wunderground v.1.15,2013-01-31 07:41:00,
2013-01-31 02:46:00,38.1,34.3,29.73,WSW,250,3.0,6.0,86,0.00,,,0.00,Wunderground v.1.15,2013-01-31 07:46:00,
2013-01-31 02:51:00,38.2,34.7,29.74,West,265,2.0,4.0,87,0.00,,,0.00,Wunderground v.1.15,2013-01-31 07:51:00,
2013-01-31 02:56:00,37.7,34.8,29.75,West,265,2.0,4.0,89,0.00,,,0.00,Wunderground v.1.15,2013-01-31 07:56:00,
2013-01-31 03:01:00,36.6,34.5,29.75,WSW,249,1.0,3.0,92,0.00,,,0.00,Wunderground v.1.15,2013-01-31 08:01:00,
2013-01-31 03:06:00,35.7,33.9,29.75,WSW,252,1.0,3.0,93,0.00,,,0.00,Wunderground v.1.15,2013-01-31 08:06:00,
2013-01-31 03:11:00,35.2,33.4,29.75,WSW,237,4.0,4.0,93,0.00,,,0.00,Wunderground v.1.15,2013-01-31 08:11:00,
2013-01-31 03:16:00,35.3,32.7,29.75,WSW,244,4.0,6.0,90,0.00,,,0.00,Wunderground v.1.15,2013-01-31 08:16:00,
2013-01-31 03:21:00,35.4,32.2,29.76,West,267,2.0,5.0,88,0.00,,,0.00,Wunderground v.1.15,2013-01-31 08:21:00,
2013-01-31 03:26:00,35.6,32.4,29.77,West,269,1.0,5.0,88,0.00,,,0.00,Wunderground v.1.15,2013-01-31 08:26:00,
2013-01-31 03:31:00,35.6,32.1,29.77,West,269,1.0,2.0,87,0.00,,,0.00,Wunderground v.1.15,2013-01-31 08:31:00,
2013-01-31 03:36:00,35.7,32.8,29.77,SW,225,1.0,2.0,89,0.00,,,0.00,Wunderground v.1.15,2013-01-31 08:36:00,
2013-01-31 03:41:00,35.5,32.3,29.77,NE,48,0.0,2.0,88,0.00,,,0.00,Wunderground v.1.15,2013-01-31 08:41:00,
2013-01-31 03:46:00,35.3,31.5,29.78,West,277,1.0,4.0,86,0.00,,,0.00,Wunderground v.1.15,2013-01-31 08:46:00,
2013-01-31 03:51:00,34.9,31.1,29.79,WNW,302,1.0,2.0,86,0.00,,,0.00,Wunderground v.1.15,2013-01-31 08:51:00,
2013-01-31 03:57:00,34.6,30.8,29.79,WSW,240,1.0,3.0,86,0.00,,,0.00,Wunderground v.1.15,2013-01-31 08:57:00,
2013-01-31 04:01:00,34.4,30.6,29.79,WSW,251,0.0,2.0,86,0.00,,,0.00,Wunderground v.1.15,2013-01-31 09:01:00,
2013-01-31 04:07:00,34.2,30.2,29.80,WSW,249,0.0,3.0,85,0.00,,,0.00,Wunderground v.1.15,2013-01-31 09:07:00,
2013-01-31 04:12:00,34.2,29.6,29.80,WNW,300,3.0,5.0,83,0.00,,,0.00,Wunderground v.1.15,2013-01-31 09:12:00,
2013-01-31 04:17:00,34.2,28.7,29.80,WSW,249,3.0,9.0,80,0.00,,,0.00,Wunderground v.1.15,2013-01-31 09:17:00,
2013-01-31 04:22:00,34.2,28.4,29.81,SW,236,0.0,5.0,79,0.00,,,0.00,Wunderground v.1.15,2013-01-31 09:22:00,
2013-01-31 04:27:00,34.2,27.7,29.82,West,275,1.0,5.0,77,0.00,,,0.00,Wunderground v.1.15,2013-01-31 09:27:00,
2013-01-31 04:32:00,34.1,28.3,29.82,WSW,254,0.0,2.0,79,0.00,,,0.00,Wunderground v.1.15,2013-01-31 09:32:00,
2013-01-31 04:37:00,33.8,28.9,29.82,WSW,254,0.0,2.0,82,0.00,,,0.00,Wunderground v.1.15,2013-01-31 09:37:00,
2013-01-31 04:42:00,33.6,29.0,29.83,SW,227,0.0,2.0,83,0.00,,,0.00,Wunderground v.1.15,2013-01-31 09:42:00,
2013-01-31 04:47:00,33.4,28.5,29.83,NNE,32,1.0,4.0,82,0.00,,,0.00,Wunderground v.1.15,2013-01-31 09:47:00,
2013-01-31 04:52:00,33.2,28.6,29.84,North,360,2.0,2.0,83,0.00,,,0.00,Wunderground v.1.15,2013-01-31 09:52:00,
2013-01-31 04:57:00,33.0,28.1,29.83,WSW,244,0.0,5.0,82,0.00,,,0.00,Wunderground v.1.15,2013-01-31 09:57:00,
2013-01-31 05:02:00,32.9,27.7,29.83,NNW,329,0.0,2.0,81,0.00,,,0.00,Wunderground v.1.15,2013-01-31 10:02:00,
2013-01-31 05:07:00,32.7,27.8,29.83,WSW,251,1.0,4.0,82,0.00,,,0.00,Wunderground v.1.15,2013-01-31 10:07:00,
2013-01-31 05:12:00,32.6,26.8,29.84,WSW,241,1.0,3.0,79,0.00,,,0.00,Wunderground v.1.15,2013-01-31 10:12:00,
2013-01-31 05:17:00,32.6,27.1,29.84,WSW,247,0.0,3.0,80,0.00,,,0.00,Wunderground v.1.15,2013-01-31 10:17:00,
2013-01-31 05:22:00,32.5,27.9,29.84,WSW,247,0.0,1.0,83,0.00,,,0.00,Wunderground v.1.15,2013-01-31 10:22:00,
2013-01-31 05:27:00,32.4,26.9,29.84,SSW,202,0.0,3.0,80,0.00,,,0.00,Wunderground v.1.15,2013-01-31 10:27:00,
2013-01-31 05:32:00,32.2,26.7,29.85,West,267,2.0,2.0,80,0.00,,,0.00,Wunderground v.1.15,2013-01-31 10:32:00,
2013-01-31 05:38:00,32.1,27.2,29.85,North,10,0.0,2.0,82,0.00,,,0.00,Wunderground v.1.15,2013-01-31 10:38:00,
2013-01-31 05:43:00,31.9,27.0,29.86,NNW,330,0.0,1.0,82,0.00,,,0.00,Wunderground v.1.15,2013-01-31 10:43:00,
2013-01-31 05:48:00,31.7,27.1,29.86,NW,312,0.0,6.0,83,0.00,,,0.00,Wunderground v.1.15,2013-01-31 10:48:00,
2013-01-31 05:53:00,31.4,27.1,29.87,WSW,248,1.0,2.0,84,0.00,,,0.00,Wunderground v.1.15,2013-01-31 10:53:00,
2013-01-31 05:58:00,31.1,26.5,29.88,WSW,253,0.0,2.0,83,0.00,,,0.00,Wunderground v.1.15,2013-01-31 10:58:00,
2013-01-31 06:03:00,30.9,26.6,29.88,WSW,253,0.0,2.0,84,0.00,,,0.00,Wunderground v.1.15,2013-01-31 11:03:00,
2013-01-31 06:08:00,30.6,26.6,29.88,WSW,253,0.0,2.0,85,0.00,,,0.00,Wunderground v.1.15,2013-01-31 11:08:00,
2013-01-31 06:13:00,30.5,26.5,29.88,NNW,342,0.0,1.0,85,0.00,,,0.00,Wunderground v.1.15,2013-01-31 11:13:00,
2013-01-31 06:18:00,30.4,25.9,29.89,NE,42,1.0,1.0,83,0.00,,,0.00,Wunderground v.1.15,2013-01-31 11:18:00,
2013-01-31 06:23:00,30.3,25.8,29.89,NE,42,0.0,1.0,83,0.00,,,0.00,Wunderground v.1.15,2013-01-31 11:23:00,
2013-01-31 06:28:00,30.3,26.0,29.89,NE,42,0.0,1.0,84,0.00,,,0.00,Wunderground v.1.15,2013-01-31 11:28:00,
2013-01-31 06:33:00,30.1,25.6,29.89,ESE,119,0.0,2.0,83,0.00,,,0.00,Wunderground v.1.15,2013-01-31 11:33:00,
2013-01-31 06:38:00,30.1,25.3,29.90,SSW,211,0.0,3.0,82,0.00,,,0.00,Wunderground v.1.15,2013-01-31 11:38:00,
2013-01-31 06:43:00,30.0,25.8,29.90,North,360,0.0,2.0,84,0.00,,,0.00,Wunderground v.1.15,2013-01-31 11:43:00,
2013-01-31 06:48:00,29.9,24.8,29.90,NE,55,0.0,4.0,81,0.00,,,0.00,Wunderground v.1.15,2013-01-31 11:48:00,
2013-01-31 06:54:00,29.9,25.1,29.91,North,355,0.0,2.0,82,0.00,,,0.00,Wunderground v.1.15,2013-01-31 11:54:00,
2013-01-31 06:59:00,29.9,25.4,29.91,North,355,0.0,2.0,83,0.00,,,0.00,Wunderground v.1.15,2013-01-31 11:59:00,
2013-01-31 07:04:00,29.9,25.4,29.92,North,355,0.0,0.0,83,0.00,,,0.00,Wunderground v.1.15,2013-01-31 12:04:00,
2013-01-31 07:09:00,29.8,25.0,29.93,NW,307,0.0,2.0,82,0.00,,,0.00,Wunderground v.1.15,2013-01-31 12:09:00,
2013-01-31 07:14:00,29.8,25.3,29.93,NW,310,0.0,1.0,83,0.00,,,0.00,Wunderground v.1.15,2013-01-31 12:14:00,
2013-01-31 07:19:00,29.8,25.0,29.94,NW,310,0.0,1.0,82,0.00,,,0.00,Wunderground v.1.15,2013-01-31 12:19:00,
2013-01-31 07:24:00,29.7,24.9,29.94,NW,310,0.0,0.0,82,0.00,,,0.00,Wunderground v.1.15,2013-01-31 12:24:00,
2013-01-31 07:29:00,29.7,24.9,29.94,NW,310,0.0,1.0,82,0.00,,,0.00,Wunderground v.1.15,2013-01-31 12:29:00,
2013-01-31 07:34:00,29.7,24.9,29.94,NW,310,0.0,1.0,82,0.00,,,0.00,Wunderground v.1.15,2013-01-31 12:34:00,
2013-01-31 07:39:00,29.7,25.2,29.94,NW,310,0.0,1.0,83,0.00,,,0.00,Wunderground v.1.15,2013-01-31 12:39:00,
2013-01-31 07:44:00,29.6,24.8,29.95,NW,310,0.0,0.0,82,0.00,,,0.00,Wunderground v.1.15,2013-01-31 12:44:00,
2013-01-31 07:49:00,29.6,25.1,29.95,NW,310,0.0,1.0,83,0.00,,,0.00,Wunderground v.1.15,2013-01-31 12:49:00,
2013-01-31 07:54:00,29.5,24.7,29.95,NW,310,0.0,0.0,82,0.00,,,0.00,Wunderground v.1.15,2013-01-31 12:54:00,
2013-01-31 07:59:00,29.5,25.3,29.95,NW,310,0.0,0.0,84,0.00,,,0.00,Wunderground v.1.15,2013-01-31 12:59:00,
2013-01-31 08:04:00,29.5,25.0,29.95,NW,310,0.0,1.0,83,0.00,,,0.00,Wunderground v.1.15,2013-01-31 13:04:00,
2013-01-31 08:09:00,29.5,24.7,29.95,NW,310,0.0,1.0,82,0.00,,,0.00,Wunderground v.1.15,2013-01-31 13:09:00,
2013-01-31 08:14:00,29.6,24.8,29.95,NW,310,0.0,0.0,82,0.00,,,0.00,Wunderground v.1.15,2013-01-31 13:14:00,
2013-01-31 08:19:00,29.7,24.9,29.96,NW,310,0.0,1.0,82,0.00,,,0.00,Wunderground v.1.15,2013-01-31 13:19:00,
2013-01-31 08:24:00,29.8,25.0,29.96,NW,310,0.0,1.0,82,0.00,,,0.00,Wunderground v.1.15,2013-01-31 13:24:00,
2013-01-31 08:29:00,29.9,24.8,29.96,NW,310,1.0,2.0,81,0.00,,,0.00,Wunderground v.1.15,2013-01-31 13:29:00,
2013-01-31 08:34:00,29.9,25.1,29.97,NW,310,0.0,1.0,82,0.00,,,0.00,Wunderground v.1.15,2013-01-31 13:34:00,
2013-01-31 08:39:00,30.0,25.2,29.97,NW,310,0.0,1.0,82,0.00,,,0.00,Wunderground v.1.15,2013-01-31 13:39:00,
2013-01-31 08:44:00,30.1,25.6,29.97,NW,310,0.0,1.0,83,0.00,,,0.00,Wunderground v.1.15,2013-01-31 13:44:00,
2013-01-31 08:49:00,30.3,25.5,29.97,NW,310,1.0,1.0,82,0.00,,,0.00,Wunderground v.1.15,2013-01-31 13:49:00,
2013-01-31 08:54:00,30.4,25.6,29.98,SSW,206,1.0,2.0,82,0.00,,,0.00,Wunderground v.1.15,2013-01-31 13:54:00,
2013-01-31 08:59:00,30.8,24.4,29.98,SW,231,0.0,3.0,77,0.00,,,0.00,Wunderground v.1.15,2013-01-31 13:59:00,
2013-01-31 09:04:00,31.1,24.1,29.99,WSW,239,0.0,2.0,75,0.00,,,0.00,Wunderground v.1.15,2013-01-31 14:04:00,
2013-01-31 09:09:00,31.4,23.4,29.99,West,272,0.0,2.0,72,0.00,,,0.00,Wunderground v.1.15,2013-01-31 14:09:00,
2013-01-31 09:14:00,31.7,24.0,29.99,WSW,240,2.0,2.0,73,0.00,,,0.00,Wunderground v.1.15,2013-01-31 14:14:00,
2013-01-31 09:19:00,31.9,23.2,29.99,SW,232,1.0,5.0,70,0.00,,,0.00,Wunderground v.1.15,2013-01-31 14:19:00,
2013-01-31 09:24:00,32.0,23.3,30.00,West,277,2.0,5.0,70,0.00,,,0.00,Wunderground v.1.15,2013-01-31 14:24:00,
2013-01-31 09:29:00,32.2,23.2,30.00,WSW,246,2.0,5.0,69,0.00,,,0.00,Wunderground v.1.15,2013-01-31 14:29:00,
2013-01-31 09:34:00,32.3,22.9,30.00,WSW,247,2.0,3.0,68,0.00,,,0.00,Wunderground v.1.15,2013-01-31 14:34:00,
2013-01-31 09:39:00,32.3,22.9,30.00,WSW,248,0.0,4.0,68,0.00,,,0.00,Wunderground v.1.15,2013-01-31 14:39:00,
2013-01-31 09:44:00,32.5,23.1,30.00,SW,229,0.0,4.0,68,0.00,,,0.00,Wunderground v.1.15,2013-01-31 14:44:00,
2013-01-31 09:49:00,32.6,22.8,30.01,WSW,249,1.0,6.0,67,0.00,,,0.00,Wunderground v.1.15,2013-01-31 14:49:00,
2013-01-31 09:54:00,32.6,23.2,30.00,WSW,248,0.0,5.0,68,0.00,,,0.00,Wunderground v.1.15,2013-01-31 14:54:00,
2013-01-31 09:59:00,32.8,23.7,30.01,WNW,296,0.0,5.0,69,0.00,,,0.00,Wunderground v.1.15,2013-01-31 14:59:00,
2013-01-31 10:05:00,32.9,23.5,30.01,West,277,2.0,6.0,68,0.00,,,0.00,Wunderground v.1.15,2013-01-31 15:05:00,
2013-01-31 10:10:00,33.1,24.4,30.01,West,266,0.0,1.0,70,0.00,,,0.00,Wunderground v.1.15,2013-01-31 15:10:00,
2013-01-31 10:15:00,33.3,23.9,30.01,West,266,0.0,3.0,68,0.00,,,0.00,Wunderground v.1.15,2013-01-31 15:15:00,
2013-01-31 10:20:00,33.6,24.2,30.01,WSW,257,0.0,1.0,68,0.00,,,0.00,Wunderground v.1.15,2013-01-31 15:20:00,
2013-01-31 10:25:00,33.8,24.0,30.02,WSW,250,0.0,3.0,67,0.00,,,0.00,Wunderground v.1.15,2013-01-31 15:25:00,
2013-01-31 10:30:00,34.1,25.0,30.02,NNE,22,5.0,6.0,69,0.00,,,0.00,Wunderground v.1.15,2013-01-31 15:30:00,
2013-01-31 10:35:00,34.2,25.1,30.02,NNE,17,0.0,6.0,69,0.00,,,0.00,Wunderground v.1.15,2013-01-31 15:35:00,
2013-01-31 10:40:00,34.2,25.1,30.02,NNW,340,1.0,1.0,69,0.00,,,0.00,Wunderground v.1.15,2013-01-31 15:40:00,
2013-01-31 10:45:00,34.3,24.8,30.02,NE,34,0.0,4.0,68,0.00,,,0.00,Wunderground v.1.15,2013-01-31 15:45:00,
2013-01-31 10:50:00,34.4,24.9,30.02,NNW,331,0.0,3.0,68,0.00,,,0.00,Wunderground v.1.15,2013-01-31 15:50:00,
2013-01-31 10:55:00,34.6,25.1,30.02,WSW,245,1.0,3.0,68,0.00,,,0.00,Wunderground v.1.15,2013-01-31 15:55:00,
2013-01-31 11:00:00,34.9,25.4,30.02,WSW,246,0.0,2.0,68,0.00,,,0.00,Wunderground v.1.15,2013-01-31 16:00:00,
2013-01-31 11:05:00,35.2,24.6,30.02,SSW,202,1.0,4.0,65,0.00,,,0.00,Wunderground v.1.15,2013-01-31 16:05:00,
2013-01-31 11:10:00,35.4,24.4,30.02,West,267,0.0,3.0,64,0.00,,,0.00,Wunderground v.1.15,2013-01-31 16:10:00,
2013-01-31 11:15:00,35.9,25.6,30.02,West,265,0.0,4.0,66,0.00,,,0.00,Wunderground v.1.15,2013-01-31 16:15:00,
2013-01-31 11:20:00,36.3,25.7,30.02,West,263,2.0,3.0,65,0.00,,,0.00,Wunderground v.1.15,2013-01-31 16:20:00,
2013-01-31 11:25:00,36.6,26.3,30.02,West,259,1.0,3.0,66,0.00,,,0.00,Wunderground v.1.15,2013-01-31 16:25:00,
2013-01-31 11:30:00,36.9,26.2,30.02,SW,234,1.0,3.0,65,0.00,,,0.00,Wunderground v.1.15,2013-01-31 16:30:00,
2013-01-31 11:35:00,37.3,26.2,30.02,North,5,2.0,3.0,64,0.00,,,0.00,Wunderground v.1.15,2013-01-31 16:35:00,
2013-01-31 11:40:00,37.5,26.8,30.03,West,281,1.0,1.0,65,0.00,,,0.00,Wunderground v.1.15,2013-01-31 16:40:00,
2013-01-31 11:46:00,37.6,26.9,30.03,SW,219,1.0,3.0,65,0.00,,,0.00,Wunderground v.1.15,2013-01-31 16:46:00,
2013-01-31 11:51:00,37.7,26.6,30.03,West,260,2.0,2.0,64,0.00,,,0.00,Wunderground v.1.15,2013-01-31 16:51:00,
2013-01-31 11:56:00,38.0,26.9,30.03,SW,224,1.0,3.0,64,0.00,,,0.00,Wunderground v.1.15,2013-01-31 16:56:00,
2013-01-31 12:01:00,38.2,27.1,30.03,SW,232,1.0,2.0,64,0.00,,,0.00,Wunderground v.1.15,2013-01-31 17:01:00,
2013-01-31 12:06:00,38.6,26.7,30.03,West,268,1.0,3.0,62,0.00,,,0.00,Wunderground v.1.15,2013-01-31 17:06:00,
2013-01-31 12:11:00,38.5,26.6,30.03,WSW,244,4.0,4.0,62,0.00,,,0.00,Wunderground v.1.15,2013-01-31 17:11:00,
2013-01-31 12:16:00,38.5,26.6,30.03,NW,319,0.0,5.0,62,0.00,,,0.00,Wunderground v.1.15,2013-01-31 17:16:00,
2013-01-31 12:21:00,38.4,26.5,30.03,WSW,252,1.0,2.0,62,0.00,,,0.00,Wunderground v.1.15,2013-01-31 17:21:00,
2013-01-31 12:26:00,38.3,26.8,30.03,SSW,206,0.0,2.0,63,0.00,,,0.00,Wunderground v.1.15,2013-01-31 17:26:00,
2013-01-31 12:31:00,38.3,26.4,30.03,NNE,31,3.0,5.0,62,0.00,,,0.00,Wunderground v.1.15,2013-01-31 17:31:00,
2013-01-31 12:36:00,38.6,26.3,30.03,WNW,285,1.0,5.0,61,0.00,,,0.00,Wunderground v.1.15,2013-01-31 17:36:00,
2013-01-31 12:41:00,38.8,26.5,30.03,West,261,1.0,2.0,61,0.00,,,0.00,Wunderground v.1.15,2013-01-31 17:41:00,
2013-01-31 12:46:00,38.8,26.5,30.03,WSW,252,0.0,6.0,61,0.00,,,0.00,Wunderground v.1.15,2013-01-31 17:46:00,
2013-01-31 12:51:00,38.8,26.5,30.03,North,355,3.0,3.0,61,0.00,,,0.00,Wunderground v.1.15,2013-01-31 17:51:00,
2013-01-31 12:56:00,38.9,26.2,30.03,NNW,331,1.0,5.0,60,0.00,,,0.00,Wunderground v.1.15,2013-01-31 17:56:00,
2013-01-31 13:01:00,38.7,26.8,30.03,NW,310,0.0,3.0,62,0.00,,,0.00,Wunderground v.1.15,2013-01-31 18:01:00,
2013-01-31 13:06:00,38.7,26.4,30.03,NE,47,0.0,9.0,61,0.00,,,0.00,Wunderground v.1.15,2013-01-31 18:06:00,
2013-01-31 13:11:00,38.9,27.0,30.03,NNE,32,1.0,6.0,62,0.00,,,0.00,Wunderground v.1.15,2013-01-31 18:11:00,
2013-01-31 13:16:00,39.1,27.2,30.04,SSW,207,0.0,6.0,62,0.00,,,0.00,Wunderground v.1.15,2013-01-31 18:16:00,
2013-01-31 13:21:00,38.9,27.0,30.03,WNW,294,0.0,3.0,62,0.00,,,0.00,Wunderground v.1.15,2013-01-31 18:21:00,
2013-01-31 13:26:00,38.7,26.8,30.04,NE,41,1.0,5.0,62,0.00,,,0.00,Wunderground v.1.15,2013-01-31 18:26:00,
2013-01-31 13:31:00,38.8,26.5,30.04,West,273,1.0,3.0,61,0.00,,,0.00,Wunderground v.1.15,2013-01-31 18:31:00,
2013-01-31 13:36:00,38.7,26.0,30.04,West,273,2.0,3.0,60,0.00,,,0.00,Wunderground v.1.15,2013-01-31 18:36:00,
2013-01-31 13:41:00,38.8,25.7,30.04,North,5,0.0,5.0,59,0.00,,,0.00,Wunderground v.1.15,2013-01-31 18:41:00,
2013-01-31 13:46:00,39.0,26.7,30.04,NNE,29,3.0,6.0,61,0.00,,,0.00,Wunderground v.1.15,2013-01-31 18:46:00,
2013-01-31 13:51:00,39.3,26.6,30.03,SW,221,2.0,7.0,60,0.00,,,0.00,Wunderground v.1.15,2013-01-31 18:51:00,
2013-01-31 13:56:00,39.8,25.8,30.04,WSW,242,4.0,7.0,57,0.00,,,0.00,Wunderground v.1.15,2013-01-31 18:56:00,
2013-01-31 14:01:00,40.4,26.4,30.05,WSW,248,2.0,4.0,57,0.00,,,0.00,Wunderground v.1.15,2013-01-31 19:01:00,
2013-01-31 14:06:00,40.5,26.0,30.05,West,278,3.0,6.0,56,0.00,,,0.00,Wunderground v.1.15,2013-01-31 19:06:00,
2013-01-31 14:11:00,40.5,25.1,30.06,West,259,1.0,3.0,54,0.00,,,0.00,Wunderground v.1.15,2013-01-31 19:11:00,
2013-01-31 14:16:00,40.6,27.0,30.06,WSW,255,3.0,3.0,58,0.00,,,0.00,Wunderground v.1.15,2013-01-31 19:16:00,
2013-01-31 14:21:00,40.9,25.5,30.06,West,262,1.0,7.0,54,0.00,,,0.00,Wunderground v.1.15,2013-01-31 19:21:00,
2013-01-31 14:26:00,40.9,25.5,30.06,West,269,1.0,7.0,54,0.00,,,0.00,Wunderground v.1.15,2013-01-31 19:26:00,
2013-01-31 14:31:00,40.7,25.3,30.07,WNW,287,1.0,3.0,54,0.00,,,0.00,Wunderground v.1.15,2013-01-31 19:31:00,
2013-01-31 14:36:00,40.4,24.6,30.07,WNW,292,3.0,5.0,53,0.00,,,0.00,Wunderground v.1.15,2013-01-31 19:36:00,
2013-01-31 14:41:00,40.1,24.8,30.07,WSW,252,4.0,5.0,54,0.00,,,0.00,Wunderground v.1.15,2013-01-31 19:41:00,
2013-01-31 14:46:00,39.9,23.7,30.07,West,269,4.0,7.0,52,0.00,,,0.00,Wunderground v.1.15,2013-01-31 19:46:00,
2013-01-31 14:51:00,39.7,24.4,30.06,SW,222,0.0,4.0,54,0.00,,,0.00,Wunderground v.1.15,2013-01-31 19:51:00,
2013-01-31 14:56:00,39.8,24.0,30.07,SW,234,4.0,7.0,53,0.00,,,0.00,Wunderground v.1.15,2013-01-31 19:56:00,
2013-01-31 15:01:00,39.9,24.1,30.08,South,188,1.0,2.0,53,0.00,,,0.00,Wunderground v.1.15,2013-01-31 20:01:00,
2013-01-31 15:06:00,39.7,25.3,30.08,WNW,302,2.0,5.0,56,0.00,,,0.00,Wunderground v.1.15,2013-01-31 20:06:00,
2013-01-31 15:11:00,39.3,24.5,30.07,North,355,1.0,7.0,55,0.00,,,0.00,Wunderground v.1.15,2013-01-31 20:11:00,
2013-01-31 15:16:00,38.9,24.1,30.07,North,5,1.0,7.0,55,0.00,,,0.00,Wunderground v.1.15,2013-01-31 20:16:00,
2013-01-31 15:21:00,38.9,25.8,30.08,NE,37,3.0,3.0,59,0.00,,,0.00,Wunderground v.1.15,2013-01-31 20:21:00,
2013-01-31 15:26:00,39.1,25.1,30.08,WSW,242,0.0,10.0,57,0.00,,,0.00,Wunderground v.1.15,2013-01-31 20:26:00,
2013-01-31 15:31:00,39.3,25.3,30.08,WSW,257,1.0,2.0,57,0.00,,,0.00,Wunderground v.1.15,2013-01-31 20:31:00,
2013-01-31 15:37:00,39.6,24.3,30.08,West,271,2.0,4.0,54,0.00,,,0.00,Wunderground v.1.15,2013-01-31 20:37:00,
2013-01-31 15:42:00,39.6,25.6,30.08,NW,325,1.0,2.0,57,0.00,,,0.00,Wunderground v.1.15,2013-01-31 20:42:00,
2013-01-31 15:47:00,39.6,24.7,30.08,SSW,210,1.0,4.0,55,0.00,,,0.00,Wunderground v.1.15,2013-01-31 20:47:00,
2013-01-31 15:52:00,39.6,25.6,30.09,NW,317,0.0,6.0,57,0.00,,,0.00,Wunderground v.1.15,2013-01-31 20:52:00,
2013-01-31 15:57:00,39.4,25.0,30.09,NNW,329,0.0,6.0,56,0.00,,,0.00,Wunderground v.1.15,2013-01-31 20:57:00,
2013-01-31 16:02:00,39.3,25.7,30.09,North,355,0.0,3.0,58,0.00,,,0.00,Wunderground v.1.15,2013-01-31 21:02:00,
2013-01-31 16:07:00,39.4,25.0,30.09,WNW,293,1.0,3.0,56,0.00,,,0.00,Wunderground v.1.15,2013-01-31 21:07:00,
2013-01-31 16:12:00,39.6,24.7,30.09,WNW,290,2.0,3.0,55,0.00,,,0.00,Wunderground v.1.15,2013-01-31 21:12:00,
2013-01-31 16:17:00,39.6,24.3,30.09,West,278,0.0,4.0,54,0.00,,,0.00,Wunderground v.1.15,2013-01-31 21:17:00,
2013-01-31 16:22:00,39.5,25.1,30.09,West,274,0.0,2.0,56,0.00,,,0.00,Wunderground v.1.15,2013-01-31 21:22:00,
2013-01-31 16:27:00,39.4,24.6,30.09,North,5,0.0,4.0,55,0.00,,,0.00,Wunderground v.1.15,2013-01-31 21:27:00,
2013-01-31 16:32:00,39.4,25.0,30.09,WNW,289,0.0,3.0,56,0.00,,,0.00,Wunderground v.1.15,2013-01-31 21:32:00,
2013-01-31 16:37:00,39.2,24.8,30.10,West,279,0.0,3.0,56,0.00,,,0.00,Wunderground v.1.15,2013-01-31 21:37:00,
2013-01-31 16:42:00,39.1,24.3,30.09,NW,316,0.0,1.0,55,0.00,,,0.00,Wunderground v.1.15,2013-01-31 21:42:00,
2013-01-31 16:47:00,38.9,24.1,30.10,NW,317,0.0,2.0,55,0.00,,,0.00,Wunderground v.1.15,2013-01-31 21:47:00,
2013-01-31 16:52:00,38.8,24.4,30.10,NNW,338,0.0,3.0,56,0.00,,,0.00,Wunderground v.1.15,2013-01-31 21:52:00,
2013-01-31 16:57:00,38.7,24.3,30.09,NE,40,2.0,4.0,56,0.00,,,0.00,Wunderground v.1.15,2013-01-31 21:57:00,
2013-01-31 17:02:00,38.6,24.2,30.10,NNE,13,1.0,3.0,56,0.00,,,0.00,Wunderground v.1.15,2013-01-31 22:02:00,
2013-01-31 17:07:00,38.4,25.3,30.10,NE,43,0.0,3.0,59,0.00,,,0.00,Wunderground v.1.15,2013-01-31 22:07:00,
2013-01-31 17:12:00,38.3,24.8,30.10,SSE,152,0.0,1.0,58,0.00,,,0.00,Wunderground v.1.15,2013-01-31 22:12:00,
2013-01-31 17:17:00,38.1,24.2,30.10,NNE,33,0.0,2.0,57,0.00,,,0.00,Wunderground v.1.15,2013-01-31 22:17:00,
2013-01-31 17:22:00,38.0,24.5,30.10,NNE,33,1.0,1.0,58,0.00,,,0.00,Wunderground v.1.15,2013-01-31 22:22:00,
2013-01-31 17:27:00,37.8,24.3,30.10,NE,50,1.0,3.0,58,0.00,,,0.00,Wunderground v.1.15,2013-01-31 22:27:00,
2013-01-31 17:32:00,37.7,24.2,30.10,NNE,32,0.0,3.0,58,0.00,,,0.00,Wunderground v.1.15,2013-01-31 22:32:00,
2013-01-31 17:37:00,37.6,24.1,30.10,NNE,33,0.0,3.0,58,0.00,,,0.00,Wunderground v.1.15,2013-01-31 22:37:00,
2013-01-31 17:42:00,37.4,24.4,30.10,NNE,33,0.0,1.0,59,0.00,,,0.00,Wunderground v.1.15,2013-01-31 22:42:00,
2013-01-31 17:47:00,37.3,25.1,30.10,NNE,33,0.0,1.0,61,0.00,,,0.00,Wunderground v.1.15,2013-01-31 22:47:00,
2013-01-31 17:52:00,37.1,25.3,30.10,NNE,33,0.0,0.0,62,0.00,,,0.00,Wunderground v.1.15,2013-01-31 22:52:00,
2013-01-31 17:57:00,36.9,24.3,30.10,NE,37,0.0,3.0,60,0.00,,,0.00,Wunderground v.1.15,2013-01-31 22:57:00,
2013-01-31 18:02:00,36.6,24.4,30.10,NE,34,0.0,1.0,61,0.00,,,0.00,Wunderground v.1.15,2013-01-31 23:02:00,
2013-01-31 18:07:00,36.4,24.2,30.10,NE,35,0.0,3.0,61,0.00,,,0.00,Wunderground v.1.15,2013-01-31 23:07:00,
2013-01-31 18:12:00,36.2,24.4,30.10,NE,35,0.0,1.0,62,0.00,,,0.00,Wunderground v.1.15,2013-01-31 23:12:00,
2013-01-31 18:17:00,36.0,24.2,30.10,NE,35,0.0,1.0,62,0.00,,,0.00,Wunderground v.1.15,2013-01-31 23:17:00,
2013-01-31 18:22:00,35.7,23.9,30.11,NE,35,0.0,0.0,62,0.00,,,0.00,Wunderground v.1.15,2013-01-31 23:22:00,
2013-01-31 18:27:00,35.5,24.1,30.11,NE,35,0.0,1.0,63,0.00,,,0.00,Wunderground v.1.15,2013-01-31 23:27:00,
2013-01-31 18:32:00,35.3,24.0,30.11,NE,35,0.0,0.0,63,0.00,,,0.00,Wunderground v.1.15,2013-01-31 23:32:00,
2013-01-31 18:37:00,35.1,24.1,30.11,NE,35,0.0,1.0,64,0.00,,,0.00,Wunderground v.1.15,2013-01-31 23:37:00,
2013-01-31 18:42:00,34.9,24.7,30.12,NE,35,0.0,1.0,66,0.00,,,0.00,Wunderground v.1.15,2013-01-31 23:42:00,
2013-01-31 18:47:00,34.8,23.9,30.11,NE,35,0.0,1.0,64,0.00,,,0.00,Wunderground v.1.15,2013-01-31 23:47:00,
2013-01-31 18:52:00,34.6,24.0,30.12,NE,35,0.0,1.0,65,0.00,,,0.00,Wunderground v.1.15,2013-01-31 23:52:00,
2013-01-31 18:57:00,34.4,23.8,30.12,NE,35,0.0,1.0,65,0.00,,,0.00,Wunderground v.1.15,2013-01-31 23:57:00,
2013-01-31 19:02:00,34.2,24.0,30.12,NE,35,0.0,0.0,66,0.00,,,0.00,Wunderground v.1.15,2013-02-01 00:02:00,
2013-01-31 19:07:00,34.2,24.4,30.13,NE,35,0.0,0.0,67,0.00,,,0.00,Wunderground v.1.15,2013-02-01 00:07:00,
2013-01-31 19:12:00,34.1,24.3,30.12,NE,35,0.0,0.0,67,0.00,,,0.00,Wunderground v.1.15,2013-02-01 00:12:00,
2013-01-31 19:17:00,33.9,24.8,30.13,NE,35,0.0,0.0,69,0.00,,,0.00,Wunderground v.1.15,2013-02-01 00:17:00,
2013-01-31 19:22:00,33.7,23.5,30.13,NE,35,1.0,1.0,66,0.00,,,0.00,Wunderground v.1.15,2013-02-01 00:22:00,
2013-01-31 19:27:00,33.6,24.5,30.13,NE,35,0.0,1.0,69,0.00,,,0.00,Wunderground v.1.15,2013-02-01 00:27:00,
2013-01-31 19:33:00,33.5,24.1,30.13,NE,35,0.0,0.0,68,0.00,,,0.00,Wunderground v.1.15,2013-02-01 00:33:00,
2013-01-31 19:38:00,33.3,23.5,30.12,NE,35,0.0,0.0,67,0.00,,,0.00,Wunderground v.1.15,2013-02-01 00:38:00,
2013-01-31 19:43:00,33.2,24.1,30.12,NE,35,1.0,1.0,69,0.00,,,0.00,Wunderground v.1.15,2013-02-01 00:43:00,
2013-01-31 19:48:00,33.0,23.9,30.13,NE,35,0.0,1.0,69,0.00,,,0.00,Wunderground v.1.15,2013-02-01 00:48:00,
2013-01-31 19:53:00,32.8,24.1,30.13,NE,35,0.0,0.0,70,0.00,,,0.00,Wunderground v.1.15,2013-02-01 00:53:00,
2013-01-31 19:58:00,32.6,23.9,30.13,NE,35,0.0,0.0,70,0.00,,,0.00,Wunderground v.1.15,2013-02-01 00:58:00,
2013-01-31 20:03:00,32.5,24.5,30.13,NE,35,0.0,0.0,72,0.00,,,0.00,Wunderground v.1.15,2013-02-01 01:03:00,
2013-01-31 20:08:00,32.3,23.9,30.13,NE,35,0.0,0.0,71,0.00,,,0.00,Wunderground v.1.15,2013-02-01 01:08:00,
2013-01-31 20:13:00,32.0,24.3,30.13,NE,35,0.0,0.0,73,0.00,,,0.00,Wunderground v.1.15,2013-02-01 01:13:00,
2013-01-31 20:18:00,31.7,24.0,30.13,NE,35,0.0,0.0,73,0.00,,,0.00,Wunderground v.1.15,2013-02-01 01:18:00,
2013-01-31 20:23:00,31.4,23.7,30.13,ESE,120,0.0,2.0,73,0.00,,,0.00,Wunderground v.1.15,2013-02-01 01:23:00,
2013-01-31 20:28:00,31.2,24.2,30.13,ESE,120,0.0,2.0,75,0.00,,,0.00,Wunderground v.1.15,2013-02-01 01:28:00,
2013-01-31 20:33:00,31.0,23.7,30.13,ESE,120,0.0,0.0,74,0.00,,,0.00,Wunderground v.1.15,2013-02-01 01:33:00,
2013-01-31 20:38:00,30.7,25.6,30.13,ESE,120,0.0,0.0,81,0.00,,,0.00,Wunderground v.1.15,2013-02-01 01:38:00,
2013-01-31 20:43:00,30.5,24.5,30.14,ESE,120,0.0,0.0,78,0.00,,,0.00,Wunderground v.1.15,2013-02-01 01:43:00,
2013-01-31 20:48:00,30.3,24.3,30.14,ESE,120,0.0,1.0,78,0.00,,,0.00,Wunderground v.1.15,2013-02-01 01:48:00,
2013-01-31 20:53:00,30.1,24.4,30.15,ESE,120,0.0,0.0,79,0.00,,,0.00,Wunderground v.1.15,2013-02-01 01:53:00,
2013-01-31 20:58:00,30.0,24.3,30.15,ESE,120,0.0,1.0,79,0.00,,,0.00,Wunderground v.1.15,2013-02-01 01:58:00,
2013-01-31 21:03:00,29.8,24.4,30.15,ESE,120,0.0,0.0,80,0.00,,,0.00,Wunderground v.1.15,2013-02-01 02:03:00,
2013-01-31 21:08:00,29.6,24.5,30.15,ESE,120,0.0,1.0,81,0.00,,,0.00,Wunderground v.1.15,2013-02-01 02:08:00,
2013-01-31 21:13:00,29.4,24.3,30.15,ESE,120,0.0,0.0,81,0.00,,,0.00,Wunderground v.1.15,2013-02-01 02:13:00,
2013-01-31 21:18:00,29.2,24.4,30.15,ESE,120,0.0,0.0,82,0.00,,,0.00,Wunderground v.1.15,2013-02-01 02:18:00,
2013-01-31 21:23:00,29.1,24.3,30.15,ESE,120,0.0,0.0,82,0.00,,,0.00,Wunderground v.1.15,2013-02-01 02:23:00,
2013-01-31 21:28:00,29.0,24.5,30.15,ESE,120,0.0,0.0,83,0.00,,,0.00,Wunderground v.1.15,2013-02-01 02:28:00,
2013-01-31 21:33:00,28.9,24.4,30.15,ESE,120,0.0,0.0,83,0.00,,,0.00,Wunderground v.1.15,2013-02-01 02:33:00,
2013-01-31 21:38:00,28.8,24.9,30.15,ESE,120,0.0,0.0,85,0.00,,,0.00,Wunderground v.1.15,2013-02-01 02:38:00,
2013-01-31 21:43:00,28.7,24.8,30.15,ESE,120,0.0,1.0,85,0.00,,,0.00,Wunderground v.1.15,2013-02-01 02:43:00,
2013-01-31 21:48:00,28.6,24.9,30.15,ESE,120,0.0,1.0,86,0.00,,,0.00,Wunderground v.1.15,2013-02-01 02:48:00,
2013-01-31 21:53:00,28.5,24.8,30.15,ESE,120,0.0,0.0,86,0.00,,,0.00,Wunderground v.1.15,2013-02-01 02:53:00,
2013-01-31 21:58:00,28.5,25.1,30.15,SSE,153,0.0,1.0,87,0.00,,,0.00,Wunderground v.1.15,2013-02-01 02:58:00,
2013-01-31 22:03:00,28.4,25.0,30.15,SSE,153,0.0,0.0,87,0.00,,,0.00,Wunderground v.1.15,2013-02-01 03:03:00,
2013-01-31 22:08:00,28.4,25.0,30.15,SSE,153,0.0,1.0,87,0.00,,,0.00,Wunderground v.1.15,2013-02-01 03:08:00,
2013-01-31 22:13:00,28.4,25.0,30.15,SSE,153,0.0,1.0,87,0.00,,,0.00,Wunderground v.1.15,2013-02-01 03:13:00,
2013-01-31 22:18:00,28.4,25.0,30.15,SSE,153,0.0,1.0,87,0.00,,,0.00,Wunderground v.1.15,2013-02-01 03:18:00,
2013-01-31 22:23:00,28.5,25.1,30.15,SSE,153,0.0,1.0,87,0.00,,,0.00,Wunderground v.1.15,2013-02-01 03:23:00,
2013-01-31 22:29:00,28.5,25.1,30.15,SSE,153,0.0,1.0,87,0.00,,,0.00,Wunderground v.1.15,2013-02-01 03:29:00,
2013-01-31 22:34:00,28.6,25.2,30.14,SSE,153,0.0,0.0,87,0.00,,,0.00,Wunderground v.1.15,2013-02-01 03:34:00,
2013-01-31 22:39:00,28.6,24.9,30.14,SSE,153,0.0,1.0,86,0.00,,,0.00,Wunderground v.1.15,2013-02-01 03:39:00,
2013-01-31 22:44:00,28.6,24.7,30.14,SSE,153,0.0,0.0,85,0.00,,,0.00,Wunderground v.1.15,2013-02-01 03:44:00,
2013-01-31 22:49:00,28.8,24.9,30.14,North,350,1.0,4.0,85,0.00,,,0.00,Wunderground v.1.15,2013-02-01 03:49:00,
2013-01-31 22:54:00,29.0,25.1,30.14,North,355,0.0,1.0,85,0.00,,,0.00,Wunderground v.1.15,2013-02-01 03:54:00,
2013-01-31 22:59:00,29.0,25.1,30.14,North,5,0.0,1.0,85,0.00,,,0.00,Wunderground v.1.15,2013-02-01 03:59:00,
2013-01-31 23:04:00,29.2,25.0,30.14,North,5,0.0,1.0,84,0.00,,,0.00,Wunderground v.1.15,2013-02-01 04:04:00,
2013-01-31 23:09:00,29.2,25.5,30.14,North,5,0.0,0.0,86,0.00,,,0.00,Wunderground v.1.15,2013-02-01 04:09:00,
2013-01-31 23:14:00,29.1,25.2,30.14,North,5,0.0,1.0,85,0.00,,,0.00,Wunderground v.1.15,2013-02-01 04:14:00,
2013-01-31 23:19:00,29.2,25.5,30.14,SSE,161,0.0,3.0,86,0.00,,,0.00,Wunderground v.1.15,2013-02-01 04:19:00,
2013-01-31 23:24:00,29.2,25.5,30.14,SSE,161,0.0,0.0,86,0.00,,,0.00,Wunderground v.1.15,2013-02-01 04:24:00,
2013-01-31 23:29:00,29.3,25.1,30.15,SSE,159,0.0,2.0,84,0.00,,,0.00,Wunderground v.1.15,2013-02-01 04:29:00,
2013-01-31 23:34:00,29.3,25.4,30.15,East,92,0.0,1.0,85,0.00,,,0.00,Wunderground v.1.15,2013-02-01 04:34:00,
2013-01-31 23:39:00,29.3,25.4,30.14,East,98,0.0,0.0,85,0.00,,,0.00,Wunderground v.1.15,2013-02-01 04:39:00,
2013-01-31 23:44:00,29.4,25.2,30.14,East,98,0.0,1.0,84,0.00,,,0.00,Wunderground v.1.15,2013-02-01 04:44:00,
2013-01-31 23:49:00,29.5,25.5,30.14,East,98,0.0,0.0,85,0.00,,,0.00,Wunderground v.1.15,2013-02-01 04:49:00,
2013-01-31 23:55:00,29.5,25.5,30.14,East,98,0.0,1.0,85,0.00,,,0.00,Wunderground v.1.15,2013-02-01 04:55:00,